User: anonymous   Login
Location: Augirein
(42.9320°N, 0.9181°E)
Time: 10:26:06
(UTC+00:00)
Language:

Meteor 2-8 Rocket - Orbit

View from above orbital plane
View from above orbital plane
View from above satellite
View from above satellite

Ground track
Ground track

The orbit data is extracted from the following two-line orbital elements,

1 13114U 82025B   21267.88936250  .00000019  00000-0  33192-5 0  9999
2 13114  82.5416  40.8672 0015858  87.0900  25.5525 13.84683779996392
Epoch (UTC): 24 September 2021 21:20:40
Eccentricity: 0.0015858
inclination: 82.5416°
perigee height: 936 km
apogee height: 959 km
right ascension of ascending node: 40.8672°
argument of perigee: 87.0900°
revolutions per day: 13.84683779
mean anomaly at epoch: 25.5525°
orbit number at epoch: 99639

The dashed part of the orbit path shows where the satellite is in the earth's shadow,  

DLR